Aérodrome :
LOGIN :

S'inscrire | Disclaimer

   EN    FR    IT 

 










Légende :    VFR   VFR Marginal   IFR   IFR Intensif   IFR Très Intensif
Visi : 
Plafond : 
>= 8 km
>= 3000ft
5 à 8 km
1000 à 3000 ft
1500m à 5 km
500 à 1000 ft
800 à 1500m
200 à 500 ft
< 800m
< 200 ft
Symboles :   Orages  Brouillard  Fortes neiges  Fortes précipitations  Vent > 20 kt
SIGMETs :   Divers  Orages  Givrage  Turbulence  Onde Orograph.  Cendres Volcan.






- Altitude de l'aérodrome : 336 ft
- Code IATA : GCI


EGJB - Guernsey

DERNIER METAR :
  • 160450Z 22012KT 9999 7000W VCSH BKN006 10/10 Q1000

METARs EXPIRÉS :
  • 160420Z 22012KT 9999 VCSH SCT007 BKN010 10/10 Q1000
  • 160350Z 22011KT 9999 BKN007 10/10 Q1001
  • 160320Z 23010KT 9999 SCT006 10/10 Q1001
  • 160250Z 24012KT 9999 FEW005 10/10 Q1001

TAF TAF EGJB
Valide du 16 à 03h jusqu'au 16 à 12h UTC


160157Z 1603/1612 22013KT 9999 FEW007 SCT020
TEMPO 1603/1612 23016G26KT 5000 SHRA BKN012CB
PROB40
TEMPO 1603/1609 BKN005
BECMG 1609/1611 24023G33KT
ATIS : +44 1481 238 957



MET'MAP, la Météo Aéronautique d'un coup d'oeil ! - Copyright ORBIFLY Décembre 2007 - Disclaimer

ORBIFLY MET'MAP TEAM :

Programmation & Développement : Alexandra Zaïnal
Sur une idée originale de : Baudouin d'Aumeries
Assistance à la programmation : Marc-Olivier Méhu
Soutien technique & logistique : Manuel Goepfert

Contact : metmap@orbifly.com




SOURCES & CREDITS :

   NOAA